This is the latest recevied weather packets stored in our database for station/object NO9B. If no packets are shown the sender has not sent any weather packets the latest 10 day(s).
| Time | Temp. | Humidity | Pressure | Rain* | Wind** | Luminosity | Snow |
|---|---|---|---|---|---|---|---|
| 1787951551 | 29.44° C | 44% | 1020.5 hPa | 0 mm | - | 353 W/m² | - |
| 1787951247 | 30° C | 43% | 1020.5 hPa | 0 mm | - | 364 W/m² | - |
| 1787950943 | 29.44° C | 51% | 1020.6 hPa | 0 mm | - | 375 W/m² | - |
| 1787950638 | 30° C | 44% | 1020.6 hPa | 0 mm | - | 69 W/m² | - |
| 1787950335 | 30° C | 43% | 1020.3 hPa | 0 mm | - | 93 W/m² | - |
| 1787950030 | 31.11° C | 45% | 1020.7 hPa | 0 mm | - | 409 W/m² | - |
| 1787949725 | 30° C | 45% | 1020.6 hPa | 0 mm | - | 419 W/m² | - |
| 1787949425 | 30° C | 44% | 1020.7 hPa | 0 mm | - | 438 W/m² | - |
| 1787949120 | 29.44° C | 51% | 1020.8 hPa | 0 mm | - | 441 W/m² | - |
| 1787948816 | 29.44° C | 46% | 1020.8 hPa | 0 mm | - | 291 W/m² | - |
| 1787948515 | 29.44° C | 44% | 1020.8 hPa | 0 mm | - | 484 W/m² | - |
| 1787948211 | 28.89° C | 52% | 1020.8 hPa | 0 mm | - | 503 W/m² | - |
| 1787947909 | 29.44° C | 45% | 1021 hPa | 0 mm | - | 126 W/m² | - |
| 1787947606 | 28.89° C | 48% | 1020.9 hPa | 0 mm | - | 512 W/m² | - |
| 1787947304 | 28.89° C | 48% | 1020.8 hPa | 0 mm | - | 523 W/m² | - |
| 1787947004 | 28.33° C | 49% | 1020.8 hPa | 0 mm | - | 563 W/m² | - |
| 1787946702 | 28.33° C | 51% | 1020.8 hPa | 0 mm | - | 174 W/m² | - |
| 1787946397 | 28.89° C | 51% | 1020.7 hPa | 0 mm | - | 53 W/m² | - |
| 1787946097 | 29.44° C | 45% | 1020.7 hPa | 0 mm | - | 55 W/m² | - |
| 1787945792 | 30° C | 47% | 1021 hPa | 0 mm | - | 587 W/m² | - |
| 1787945492 | 29.44° C | 47% | 1021 hPa | 0 mm | - | 506 W/m² | - |
| 1787945188 | 29.44° C | 47% | 1021.1 hPa | 0 mm | - | 558 W/m² | - |
| 1787944886 | 29.44° C | 47% | 1021.3 hPa | 0 mm | - | 569 W/m² | - |
| 1787944585 | 29.44° C | 47% | 1021.2 hPa | 0 mm | - | 590 W/m² | - |
| 1787944281 | 28.89° C | 50% | 1021.1 hPa | 0 mm | - | 590 W/m² | - |
* Rain latest hour (hover to see other rain measurements)
** Current wind speed in m/s (hover to see current wind gust speed)